This demonstration page uses our WeatherBlox Daily Observations layout. Learn more.

41.55636, -103.73856

Hourly Observations for October 27, 2016

Temp ( °F °C ) Dew Point ( °F °C ) Humidity (%) Winds ( mph kmh ) Pressure ( in mb ) Visibility ( mi km ) Precip ( " mm )
12:53 am 00:53 Clear 43 6.1 31 -0.6 63 63 Calm 30.12 1020 10 16.0934 0 0
1:53 am 01:53 Clear 44 6.7 31 -0.6 60 60 SSW 5 7 30.1 1019 10 16.0934 0 0
2:53 am 02:53 Clear 42 5.6 32 0 68 68 N 8 13 30.09 1019 10 16.0934 0 0
3:53 am 03:53 Clear 39 3.9 31 -0.6 73 73 Calm 30.1 1019 10 16.0934 0 0
4:53 am 04:53 Clear 38 3.3 30 -1.1 73 73 NNW 3 6 30.11 1020 10 16.0934 0 0
5:53 am 05:53 Clear 37 2.8 30 -1.1 76 76 N 5 7 30.14 1021 10 16.0934 0 0
6:53 am 06:53 Clear 36 2.2 29 -1.7 76 76 WNW 3 6 30.16 1021 10 16.0934 0 0
7:53 am 07:53 Sunny 38 3.3 31 -0.6 76 76 N 5 7 30.17 1022 10 16.0934 0 0
8:53 am 08:53 Sunny 47 8.3 33 0.6 59 59 NNW 3 6 30.16 1021 10 16.0934 0 0
9:53 am 09:53 Sunny 56 13.3 34 1.1 44 44 NNW 3 6 30.14 1021 10 16.0934 0 0
10:53 am 10:53 Sunny 64 17.8 35 1.7 34 34 Calm 30.09 1019 10 16.0934 0 0
11:53 am 11:53 Sunny 71 21.7 32 0 24 24 Calm 30.05 1018 10 16.0934 0 0
12:53 pm 12:53 Sunny 76 24.4 31 -0.6 19 19 VRB 5 7 30.01 1016 10 16.0934 0 0
1:53 pm 13:53 Sunny 79 26.1 31 -0.6 17 17 SE 7 11 29.95 1014 10 16.0934 0 0
2:53 pm 14:53 Sunny 82 27.8 30 -1.1 15 15 ESE 6 9 29.93 1014 10 16.0934 0 0
3:53 pm 15:53 Sunny 82 27.8 27 -2.8 13 13 SSE 5 7 29.91 1013 10 16.0934 0 0
4:53 pm 16:53 Sunny 77 25 29 -1.7 17 17 S 7 11 29.91 1013 10 16.0934 0 0
5:53 pm 17:53 Sunny 73 22.8 27 -2.8 18 18 SE 8 13 29.92 1013 10 16.0934 0 0
6:53 pm 18:53 Clear 61 16.1 29 -1.7 30 30 ESE 7 11 29.94 1014 10 16.0934 0 0
7:53 pm 19:53 Clear 67 19.4 26 -3.3 21 21 S 12 19 29.92 1013 10 16.0934 0 0
8:53 pm 20:53 Clear 66 18.9 26 -3.3 22 22 SSE 9 15 29.88 1012 10 16.0934 0 0
9:53 pm 21:53 Clear 68 20 26 -3.3 21 21 S 5 7 29.85 1011 10 16.0934 0 0
10:53 pm 22:53 Clear 56 13.3 29 -1.7 36 36 NNE 8 13 29.86 1011 10 16.0934 0 0
11:53 pm 23:53 Clear 58 14.4 28 -2.2 32 32 NW 9 15 29.83 1010 10 16.0934 0 0

Powered by AerisWeather